Sioux Falls, SD

11:20 AM CST on February 26, 2017 (GMT -0600)
Foss

Weather History for KFSD - February, 2012

Change the Weather History Date:

Monday, February 27, 2012

  Actual Average Record
Temperature  
Mean Temperature 18 °F 26 °F  
Max Temperature 27 °F 35 °F 63 °F (1895)
Min Temperature 9 °F 16 °F -19 °F (1899)
Degree Days  
Heating Degree Days 47 39  
Month to date heating degree days 1041 1180  
Since 1 July heating degree days 4932 5812  
Cooling Degree Days 0 0  
Month to date cooling degree days 0 0  
Year to date cooling degree days 0 0  
Moisture  
Dew Point 12 °F    
Average Humidity 75    
Maximum Humidity 84    
Minimum Humidity 63    
Precipitation  
Precipitation T in 0.03 in 1.00 in (1948)
Month to date precipitation 0.95 0.57  
Year to date precipitation 1.70 1.13  
Snow  
Snow T in 0.20 in 6.80 in (1969)
Month to date snowfall 6.4 6.6  
Since 1 July snowfall 15.1 31.2  
Snow Depth 4.00 in    
Sea Level Pressure  
Sea Level Pressure 30.42 in    
Wind  
Wind Speed 9 mph (West)    
Max Wind Speed 20 mph    
Max Gust Speed 26 mph    
Visibility 10 miles    
Events Snow    
T = Trace of Precipitation, MM = Missing Value Source: NWS Daily Summary

Daily Weather History Graph

Daily Weather History Graph

Search for Another Location

Airport or City:

Trip Planner

Search our weather history database for the weather conditions in past years. The results will help you decide how hot, cold, wet, or windy it might be!

Date:

Astronomy

Feb. 27, 2012 Rise Set
Actual Time 7:07 AM CST 6:12 PM CST
Civil Twilight 6:38 AM CST 6:41 PM CST
Nautical Twilight 6:05 AM CST 7:14 PM CST
Astronomical Twilight 5:32 AM CST 7:47 PM CST
Moon 9:25 AM CST (2/27) No Moon Set
Length of Visible Light 12h 02m
Length of Day
11h 05m
Waxing Crescent, 29% of the Moon is Illuminated
Feb 27
Waxing Crescent
Feb 29
First Quarter
Mar 8
Full
Mar 14
Last Quarter
Mar 22
New

Hourly Weather History & Observations

Time (CST) Temp. Windchill Dew Point Humidity Pressure Visibility Wind Dir Wind Speed Gust Speed Precip Events Conditions
12:05 AM 15.8 °F 0.3 °F 10.4 °F 79% 30.21 in 9.0 mi WNW 16.1 mph 21.9 mph 0.00 in Snow Light Snow
12:56 AM 14.0 °F -0.8 °F 9.0 °F 80% 30.32 in 10.0 mi WNW 13.8 mph 23.0 mph 0.00 in   Partly Cloudy
1:56 AM 14.0 °F -0.8 °F 9.0 °F 80% 30.36 in 10.0 mi WNW 13.8 mph 21.9 mph N/A   Clear
2:56 AM 14.0 °F -0.2 °F 9.0 °F 80% 30.38 in 10.0 mi WNW 12.7 mph 20.7 mph N/A   Clear
3:56 AM 12.9 °F -1.6 °F 9.0 °F 84% 30.39 in 10.0 mi WNW 12.7 mph - N/A   Partly Cloudy
4:56 AM 12.0 °F -0.4 °F 7.0 °F 80% 30.42 in 10.0 mi WNW 9.2 mph - N/A   Clear
5:56 AM 10.0 °F -0.9 °F 6.1 °F 84% 30.45 in 10.0 mi WNW 6.9 mph - N/A   Clear
6:56 AM 9.0 °F -5.1 °F 5.0 °F 84% 30.48 in 10.0 mi NW 10.4 mph - N/A   Clear
7:56 AM 10.0 °F 0.4 °F 5.0 °F 80% 30.50 in 10.0 mi NW 5.8 mph - N/A   Clear
8:56 AM 12.0 °F -1.3 °F 5.0 °F 73% 30.53 in 10.0 mi NNW 10.4 mph - N/A   Clear
9:56 AM 14.0 °F 2.9 °F 7.0 °F 74% 30.54 in 10.0 mi NNW 8.1 mph - N/A   Clear
10:56 AM 18.0 °F 12.7 °F 9.0 °F 68% 30.53 in 10.0 mi WNW 3.5 mph - N/A   Clear
11:56 AM 19.9 °F 12.1 °F 10.9 °F 68% 30.53 in 10.0 mi WNW 5.8 mph - N/A   Clear
12:56 PM 21.9 °F 17.2 °F 12.9 °F 68% 30.53 in 10.0 mi SW 3.5 mph - N/A   Clear
1:56 PM 24.1 °F 18.2 °F 16.0 °F 71% 30.49 in 10.0 mi Variable 4.6 mph - N/A   Clear
2:56 PM 24.1 °F 17.0 °F 16.0 °F 71% 30.48 in 10.0 mi South 5.8 mph - N/A   Partly Cloudy
3:56 PM 26.1 °F 21.9 °F 15.1 °F 63% 30.44 in 10.0 mi East 3.5 mph - N/A   Clear
4:56 PM 25.0 °F 15.5 °F 16.0 °F 69% 30.42 in 10.0 mi ESE 9.2 mph - N/A   Clear
5:56 PM 24.1 °F 13.7 °F 17.1 °F 75% 30.40 in 10.0 mi ESE 10.4 mph - N/A   Clear
6:56 PM 23.0 °F 11.1 °F 16.0 °F 74% 30.39 in 10.0 mi SE 12.7 mph - N/A   Scattered Clouds
7:56 PM 24.1 °F 12.5 °F 16.0 °F 71% 30.38 in 10.0 mi SSE 12.7 mph - N/A   Overcast
8:56 PM 24.1 °F 13.7 °F 16.0 °F 71% 30.32 in 10.0 mi ESE 10.4 mph 20.7 mph N/A   Overcast
9:56 PM 24.1 °F 13.1 °F 17.1 °F 75% 30.33 in 10.0 mi SE 11.5 mph - N/A   Overcast
10:56 PM 26.1 °F 16.2 °F 19.0 °F 75% 30.30 in 10.0 mi SE 10.4 mph - N/A   Overcast
11:56 PM 27.0 °F 17.3 °F 19.9 °F 75% 30.30 in 10.0 mi SE 10.4 mph 19.6 mph N/A   Overcast